TimePDT,TemperatureF,Dew PointF,Humidity,Sea Level PressureIn,VisibilityMPH,Wind Direction,Wind SpeedMPH,Gust SpeedMPH,PrecipitationIn,Events,Conditions,WindDirDegrees,DateUTC
12:55 AM,46.9,37.0,68,29.99,10.0,Calm,Calm,-,N/A,,Clear,0,2013-08-29 07:55:00
1:55 AM,50.0,37.9,63,29.96,10.0,ENE,3.5,-,N/A,,Clear,60,2013-08-29 08:55:00
2:55 AM,46.9,37.9,71,29.96,10.0,Calm,Calm,-,N/A,,Clear,0,2013-08-29 09:55:00
3:55 AM,42.1,36.0,79,29.97,10.0,Calm,Calm,-,N/A,,Clear,0,2013-08-29 10:55:00
4:55 AM,44.1,37.0,76,29.98,10.0,Calm,Calm,-,N/A,,Clear,0,2013-08-29 11:55:00
5:55 AM,42.1,36.0,79,30.00,10.0,East,3.5,-,N/A,,Clear,100,2013-08-29 12:55:00
6:55 AM,42.1,36.0,79,30.03,10.0,Calm,Calm,-,N/A,,Clear,0,2013-08-29 13:55:00
7:55 AM,57.9,42.1,56,30.02,10.0,Calm,Calm,-,N/A,,Clear,0,2013-08-29 14:55:00
8:55 AM,68.0,39.9,36,30.01,10.0,SSE,8.1,-,N/A,,Clear,150,2013-08-29 15:55:00
9:55 AM,73.9,36.0,25,30.02,10.0,South,12.7,-,N/A,,Clear,180,2013-08-29 16:55:00
10:55 AM,79.0,30.9,17,30.01,10.0,SW,13.8,20.7,N/A,,Clear,230,2013-08-29 17:55:00
11:55 AM,79.0,32.0,18,30.03,10.0,West,12.7,-,N/A,,Clear,260,2013-08-29 18:55:00
12:55 PM,82.0,30.9,16,30.02,10.0,WSW,10.4,18.4,N/A,,Clear,250,2013-08-29 19:55:00
1:55 PM,82.9,33.1,17,30.01,10.0,SW,9.2,19.6,N/A,,Clear,220,2013-08-29 20:55:00
2:55 PM,82.0,30.9,16,30.01,10.0,SW,12.7,24.2,N/A,,Clear,230,2013-08-29 21:55:00
3:55 PM,84.0,30.9,15,30.02,10.0,WSW,12.7,-,N/A,,Clear,240,2013-08-29 22:55:00
4:55 PM,82.9,33.1,17,30.01,10.0,West,17.3,26.5,N/A,,Clear,270,2013-08-29 23:55:00
5:55 PM,80.1,34.0,19,30.04,10.0,West,18.4,24.2,N/A,,Clear,260,2013-08-30 00:55:00
6:55 PM,77.0,34.0,21,30.05,10.0,West,16.1,20.7,N/A,,Clear,260,2013-08-30 01:55:00
7:55 PM,71.1,34.0,26,30.05,10.0,West,6.9,-,N/A,,Clear,280,2013-08-30 02:55:00
8:55 PM,64.9,34.0,32,30.06,10.0,SW,5.8,-,N/A,,Clear,230,2013-08-30 03:55:00
9:55 PM,63.0,35.1,35,30.07,10.0,Calm,Calm,-,N/A,,Clear,0,2013-08-30 04:55:00
10:55 PM,54.0,35.1,49,30.08,10.0,Calm,Calm,-,N/A,,Clear,0,2013-08-30 05:55:00
11:55 PM,53.1,35.1,50,30.09,10.0,Calm,Calm,-,N/A,,Clear,0,2013-08-30 06:55:00